Погода в Ценогоре

Россия / Архангельская область     64°52′58″N   46°43′01″E
темп.,
°C
ветер,
м/с
пор.,
м/с
влажн.,
%
обл.,
%
осадки,
мм/ч
давл.,
гПа
погр.,
м
16 апреля, пт
пт1600:00−2юз248870 0.0 102879
03:00−1юз288099 0.0 1028278
06:000зюз387891 0.0 1028372
09:00+3зюз477374 0.0 1028678
12:00+5зсз4971100 0.0 10281338
15:00+4зсз4892100 0.3 1029824
18:00+5сз487412 0.3 1028525
21:00+3зсз41083100 0.3 1029907
17 апреля, сб
сб1700:00+2зсз4118592 0.0 1029644
03:00+1з399199 0.0 1029604
06:00+1з4138992 0.0 1027688
09:00+3зсз51284100 0.0 1026900
12:00+6зсз6137399 0.0 10261440
15:00+6сз6147397 0.3 10261579
18:00+2ссз41096100 0.6 1027787
21:00−1с48778 1.1 1030780
18 апреля, вс
вс1800:00−3ссв388240 0.0 1033632
03:00−4св36825 0.0 1036445
06:00−4всв346866 0.0 1037440
09:00−1всв234650 0.0 1038755
12:00+2всв22355 0.0 10381124
15:00+3всв11334 0.0 10381295
18:00+2св11475 0.0 103811
21:00−2вюв11597 0.0 103810
19 апреля, пн
пн1900:00−2ю225963 0.0 103823
03:00−2юз246374 0.0 103891
06:000юз2658100 0.0 1037211
09:00+4зюз364372 0.0 1037584
12:00+7зюз453727 0.0 10351101
15:00+7з46415 0.0 10341183
18:00+6зюз25576 0.0 1033155
21:00+2юз277225 0.0 1033119
20 апреля, вт
вт2000:00+1юз27796 0.0 1033140
03:000юз298231 0.0 1033174
06:00+2юз38725 0.0 1033249
09:00+6зюз35555 0.0 1032491
12:00+9зюз34455 0.0 1032950
15:00+11зюз23394 0.0 10311193
18:00+9ююз114854 0.0 103019
21:00+5ю22592 0.0 103013